NOZ1KV ENTC-ENGM

Flight info

Callsign NOZ1KV
Flight time 1h 40m
Altitude 34000
Route AMIMO DCT TUXOT Z101 SOMUB DCT BELGU
Aircraft B738/M-SDE2E3FGHIRWXY/LB1

Departure

Time 2026-05-04 17:37
Airport Tromsø Airport (ENTC)

Arrival

Time 2026-05-04 19:17
Airport Oslo-Gardermoen International Airport (ENGM)
Time Latitude Longitude Altitude Speed Heading
2026-05-04 16:41 69.67833 18.90835 33 ft 0 kts 282°
2026-05-04 17:29 69.67832 18.90856 33 ft 4 kts 281°
2026-05-04 17:29 69.67824 18.91087 30 ft 4 kts 263°
2026-05-04 17:30 69.67839 18.91174 32 ft 0 kts 193°
2026-05-04 17:33 69.67838 18.91174 32 ft 1 kts 193°
2026-05-04 17:34 69.67679 18.91066 34 ft 6 kts 193°
2026-05-04 17:34 69.67644 18.91086 33 ft 5 kts 137°
2026-05-04 17:35 69.67618 18.91335 39 ft 4 kts 105°
2026-05-04 17:35 69.67632 18.91424 38 ft 0 kts 15°
2026-05-04 17:36 69.67634 18.91425 38 ft 5 kts 13°
2026-05-04 17:36 69.67907 18.91607 38 ft 77 kts 13°
2026-05-04 17:36 69.68637 18.92093 23 ft 139 kts 13°
2026-05-04 17:36 69.69668 18.92840 514 ft 150 kts 14°
2026-05-04 17:37 69.70712 18.93518 1274 ft 156 kts 13°
2026-05-04 17:37 69.71797 18.94192 1977 ft 166 kts 14°
2026-05-04 17:37 69.73029 18.94960 2315 ft 196 kts 14°
2026-05-04 17:37 69.74444 18.95841 2535 ft 219 kts 14°
2026-05-04 17:38 69.76000 18.96518 2942 ft 233 kts 360°
2026-05-04 17:38 69.77574 18.95223 3543 ft 242 kts 332°
2026-05-04 17:38 69.78854 18.92020 4142 ft 249 kts 305°
2026-05-04 17:38 69.79462 18.87320 4908 ft 252 kts 283°
2026-05-04 17:39 69.80224 18.77440 6544 ft 253 kts 284°
2026-05-04 17:39 69.80596 18.72492 7259 ft 257 kts 280°
2026-05-04 17:39 69.80442 18.67283 8012 ft 260 kts 247°
2026-05-04 17:40 69.79372 18.63063 8455 ft 276 kts 216°
2026-05-04 17:40 69.77707 18.60109 9037 ft 284 kts 209°
2026-05-04 17:40 69.75968 18.57327 9793 ft 286 kts 208°
2026-05-04 17:40 69.74179 18.54504 10126 ft 305 kts 208°
2026-05-04 17:41 69.72255 18.51465 10315 ft 326 kts 208°
2026-05-04 17:41 69.70222 18.48232 10714 ft 338 kts 208°
2026-05-04 17:41 69.68152 18.44924 11410 ft 341 kts 208°
2026-05-04 17:41 69.66073 18.41596 12233 ft 342 kts 208°
2026-05-04 17:42 69.63992 18.38261 13023 ft 344 kts 208°
2026-05-04 17:42 69.61890 18.34896 13786 ft 346 kts 208°
2026-05-04 17:42 69.59786 18.31533 14542 ft 347 kts 208°
2026-05-04 17:42 69.57673 18.28161 15326 ft 349 kts 208°
2026-05-04 17:43 69.55529 18.24748 15868 ft 357 kts 208°
2026-05-04 17:43 69.53370 18.21317 16558 ft 360 kts 208°
2026-05-04 17:43 69.51175 18.17837 17319 ft 362 kts 208°
2026-05-04 17:43 69.48962 18.14336 18008 ft 365 kts 208°
2026-05-04 17:44 69.46732 18.10815 18637 ft 367 kts 208°
2026-05-04 17:44 69.44494 18.07287 19293 ft 368 kts 208°
2026-05-04 17:44 69.42244 18.03752 19938 ft 370 kts 208°
2026-05-04 17:44 69.39980 18.00210 20573 ft 372 kts 207°
2026-05-04 17:45 69.37711 17.96634 21192 ft 374 kts 208°
2026-05-04 17:45 69.35447 17.92963 21801 ft 376 kts 208°
2026-05-04 17:45 69.33178 17.89241 22397 ft 378 kts 208°
2026-05-04 17:45 69.30898 17.85498 22985 ft 380 kts 208°
2026-05-04 17:46 69.28631 17.81787 23460 ft 383 kts 208°
2026-05-04 17:46 69.26277 17.77949 23782 ft 389 kts 208°
2026-05-04 17:46 69.23946 17.74164 24118 ft 394 kts 208°
2026-05-04 17:46 69.21564 17.70308 24536 ft 396 kts 208°
2026-05-04 17:47 69.19162 17.66431 24946 ft 399 kts 209°
2026-05-04 17:47 69.16738 17.62530 25303 ft 403 kts 209°
2026-05-04 17:47 69.14293 17.58607 25666 ft 407 kts 209°
2026-05-04 17:47 69.11820 17.54649 26024 ft 410 kts 209°
2026-05-04 17:48 69.09322 17.50662 26379 ft 414 kts 209°
2026-05-04 17:48 69.06893 17.46795 26716 ft 417 kts 209°
2026-05-04 17:48 69.04363 17.42779 27054 ft 420 kts 209°
2026-05-04 17:48 69.01814 17.38742 27387 ft 423 kts 209°
2026-05-04 17:49 68.99238 17.34672 27716 ft 426 kts 209°
2026-05-04 17:49 68.96650 17.30596 28021 ft 430 kts 210°
2026-05-04 17:49 68.94032 17.26484 28388 ft 431 kts 210°
2026-05-04 17:49 68.91419 17.22389 28869 ft 430 kts 210°
2026-05-04 17:50 68.88806 17.18307 29366 ft 429 kts 210°
2026-05-04 17:50 68.86235 17.14300 29725 ft 430 kts 210°
2026-05-04 17:50 68.83613 17.10222 30035 ft 431 kts 210°
2026-05-04 17:50 68.80996 17.06162 30385 ft 430 kts 210°
2026-05-04 17:51 68.78384 17.02124 30742 ft 430 kts 210°
2026-05-04 17:51 68.75771 16.98119 31075 ft 430 kts 208°
2026-05-04 17:51 68.72972 16.95232 31352 ft 433 kts 193°
2026-05-04 17:51 68.70025 16.93520 31718 ft 431 kts 193°
2026-05-04 17:52 68.67091 16.91816 32030 ft 432 kts 193°
2026-05-04 17:52 68.64150 16.90076 32333 ft 432 kts 193°
2026-05-04 17:52 68.61217 16.88309 32661 ft 431 kts 194°
2026-05-04 17:52 68.58287 16.86521 32979 ft 431 kts 194°
2026-05-04 17:53 68.55351 16.84718 33267 ft 432 kts 194°
2026-05-04 17:53 68.52415 16.82912 33536 ft 432 kts 194°
2026-05-04 17:53 68.46538 16.79302 33534 ft 437 kts 194°
2026-05-04 17:54 68.40636 16.75700 33518 ft 430 kts 194°
2026-05-04 17:54 68.34801 16.72159 33529 ft 430 kts 194°
2026-05-04 17:55 68.28954 16.68629 33538 ft 430 kts 194°
2026-05-04 17:55 68.23108 16.65118 33546 ft 430 kts 194°
2026-05-04 17:56 68.17278 16.61399 33536 ft 430 kts 200°
2026-05-04 17:56 68.12729 16.56078 33555 ft 429 kts 206°
2026-05-04 17:57 68.06430 16.48240 33551 ft 430 kts 206°
2026-05-04 17:57 68.00985 16.41571 33550 ft 431 kts 205°
2026-05-04 17:58 67.96444 16.36087 33553 ft 430 kts 205°
2026-05-04 17:58 67.90984 16.29550 33559 ft 430 kts 205°
2026-05-04 17:59 67.85521 16.23049 33553 ft 430 kts 205°
2026-05-04 18:00 67.77344 16.13381 33564 ft 429 kts 205°
2026-05-04 18:00 67.71900 16.06984 33555 ft 428 kts 205°
2026-05-04 18:01 67.66465 16.00628 33578 ft 427 kts 205°
2026-05-04 18:01 67.61024 15.94298 33567 ft 428 kts 205°
2026-05-04 18:02 67.52844 15.84843 33569 ft 428 kts 205°
2026-05-04 18:02 67.47385 15.78572 33571 ft 429 kts 205°
2026-05-04 18:03 67.41914 15.72318 33568 ft 429 kts 205°
2026-05-04 18:03 67.36439 15.66092 33577 ft 430 kts 205°
2026-05-04 18:04 67.30985 15.59922 33575 ft 430 kts 205°
2026-05-04 18:05 67.22748 15.50659 33580 ft 430 kts 205°
2026-05-04 18:05 67.17248 15.44514 33579 ft 430 kts 205°
2026-05-04 18:06 67.08999 15.35354 33571 ft 430 kts 205°
2026-05-04 18:06 67.03495 15.29279 33573 ft 430 kts 205°
2026-05-04 18:07 66.98005 15.23250 33571 ft 429 kts 204°
2026-05-04 18:07 66.92550 15.17289 33574 ft 429 kts 204°
2026-05-04 18:08 66.87058 15.11317 33567 ft 429 kts 204°
2026-05-04 18:08 66.81567 15.05375 33569 ft 428 kts 204°
2026-05-04 18:09 66.70583 14.93575 33566 ft 428 kts 204°
2026-05-04 18:10 66.65091 14.87718 33569 ft 428 kts 204°
2026-05-04 18:10 66.59629 14.81921 33568 ft 428 kts 204°
2026-05-04 18:11 66.54141 14.76125 33569 ft 428 kts 204°
2026-05-04 18:11 66.48648 14.70350 33565 ft 428 kts 204°
2026-05-04 18:12 66.43156 14.64604 33587 ft 427 kts 204°
2026-05-04 18:12 66.37698 14.58922 33588 ft 427 kts 204°
2026-05-04 18:13 66.32207 14.53232 33582 ft 428 kts 204°
2026-05-04 18:14 66.23955 14.44730 33580 ft 428 kts 204°
2026-05-04 18:14 66.18451 14.39094 33579 ft 428 kts 204°
2026-05-04 18:15 66.07478 14.27936 33581 ft 427 kts 204°
2026-05-04 18:16 66.01980 14.22385 33584 ft 427 kts 204°
2026-05-04 18:16 65.97364 14.17745 33591 ft 427 kts 204°
2026-05-04 18:17 65.88206 14.08591 33577 ft 427 kts 204°
2026-05-04 18:18 65.79952 14.00401 33598 ft 426 kts 204°
2026-05-04 18:18 65.74486 13.95009 33593 ft 426 kts 204°
2026-05-04 18:19 65.66245 13.86925 33592 ft 426 kts 204°
2026-05-04 18:19 65.60753 13.81570 33585 ft 425 kts 204°
2026-05-04 18:20 65.55254 13.76232 33590 ft 425 kts 204°
2026-05-04 18:20 65.49757 13.70919 33591 ft 425 kts 204°
2026-05-04 18:21 65.44268 13.65639 33592 ft 425 kts 204°
2026-05-04 18:21 65.38780 13.60383 33586 ft 424 kts 204°
2026-05-04 18:22 65.33296 13.55155 33598 ft 424 kts 204°
2026-05-04 18:22 65.27806 13.49945 33589 ft 424 kts 205°
2026-05-04 18:23 65.22331 13.44772 33590 ft 424 kts 205°
2026-05-04 18:23 65.16879 13.39643 33583 ft 424 kts 204°
2026-05-04 18:24 65.11391 13.34505 33600 ft 424 kts 204°
2026-05-04 18:24 65.05893 13.29378 33591 ft 424 kts 204°
2026-05-04 18:25 65.00405 13.24285 33581 ft 424 kts 205°
2026-05-04 18:25 64.94912 13.19210 33601 ft 423 kts 205°
2026-05-04 18:26 64.89420 13.14156 33603 ft 423 kts 205°
2026-05-04 18:26 64.83928 13.09125 33622 ft 423 kts 204°
2026-05-04 18:27 64.78429 13.04110 33606 ft 424 kts 204°
2026-05-04 18:27 64.72956 12.99141 33620 ft 424 kts 204°
2026-05-04 18:28 64.67448 12.94163 33611 ft 424 kts 205°
2026-05-04 18:28 64.61937 12.89202 33623 ft 424 kts 205°
2026-05-04 18:29 64.56430 12.84266 33618 ft 424 kts 205°
2026-05-04 18:29 64.50927 12.79356 33631 ft 424 kts 205°
2026-05-04 18:30 64.42694 12.72050 33620 ft 423 kts 205°
2026-05-04 18:31 64.37198 12.67200 33631 ft 422 kts 205°
2026-05-04 18:31 64.31711 12.62376 33698 ft 422 kts 205°
2026-05-04 18:32 64.26226 12.57575 33754 ft 422 kts 205°
2026-05-04 18:32 64.20729 12.52784 33810 ft 422 kts 205°
2026-05-04 18:33 64.15241 12.48021 33858 ft 421 kts 205°
2026-05-04 18:33 64.09753 12.43279 33888 ft 421 kts 205°
2026-05-04 18:34 64.04296 12.38582 33890 ft 421 kts 205°
2026-05-04 18:34 63.98805 12.33877 33872 ft 421 kts 205°
2026-05-04 18:34 63.96059 12.31531 33653 ft 421 kts 205°
2026-05-04 18:35 63.93314 12.29192 33669 ft 421 kts 205°
2026-05-04 18:35 63.87815 12.24519 33661 ft 421 kts 205°
2026-05-04 18:36 63.82321 12.19869 33648 ft 421 kts 205°
2026-05-04 18:36 63.76833 12.15243 33671 ft 421 kts 205°
2026-05-04 18:37 63.71378 12.10665 33685 ft 421 kts 205°
2026-05-04 18:37 63.65885 12.06073 33681 ft 421 kts 205°
2026-05-04 18:38 63.60391 12.01500 33691 ft 421 kts 205°
2026-05-04 18:38 63.54896 11.96942 33646 ft 421 kts 205°
2026-05-04 18:39 63.49399 11.92403 33676 ft 421 kts 205°
2026-05-04 18:39 63.43933 11.87904 33708 ft 420 kts 205°
2026-05-04 18:40 63.38420 11.83382 33707 ft 421 kts 205°
2026-05-04 18:40 63.32851 11.79119 33711 ft 425 kts 201°
2026-05-04 18:41 63.27171 11.75683 33707 ft 426 kts 200°
2026-05-04 18:41 63.21446 11.72325 33719 ft 425 kts 200°
2026-05-04 18:42 63.15723 11.68933 33722 ft 425 kts 201°
2026-05-04 18:42 63.10005 11.65519 33727 ft 425 kts 201°
2026-05-04 18:43 63.04290 11.62107 33738 ft 426 kts 201°
2026-05-04 18:43 62.98588 11.58716 33731 ft 426 kts 201°
2026-05-04 18:44 62.92862 11.55328 33733 ft 424 kts 201°
2026-05-04 18:44 62.88123 11.52534 33725 ft 424 kts 201°
2026-05-04 18:45 62.82433 11.49189 33711 ft 423 kts 201°
2026-05-04 18:45 62.76743 11.45858 33695 ft 422 kts 201°
2026-05-04 18:46 62.71059 11.42544 33672 ft 422 kts 201°
2026-05-04 18:46 62.65387 11.39251 33622 ft 421 kts 202°
2026-05-04 18:47 62.59740 11.35987 33653 ft 419 kts 202°
2026-05-04 18:47 62.54138 11.32758 33731 ft 418 kts 202°
2026-05-04 18:48 62.48507 11.29526 33731 ft 418 kts 202°
2026-05-04 18:48 62.42884 11.26311 33720 ft 417 kts 202°
2026-05-04 18:49 62.37267 11.23112 33662 ft 417 kts 202°
2026-05-04 18:49 62.31677 11.19945 33705 ft 411 kts 203°
2026-05-04 18:49 62.28931 11.18401 33491 ft 405 kts 203°
2026-05-04 18:50 62.26231 11.16887 33252 ft 396 kts 203°
2026-05-04 18:50 62.23582 11.15400 32865 ft 391 kts 204°
2026-05-04 18:50 62.20958 11.13926 32490 ft 387 kts 204°
2026-05-04 18:50 62.18399 11.12487 32124 ft 383 kts 204°
2026-05-04 18:51 62.15835 11.11048 31744 ft 379 kts 204°
2026-05-04 18:51 62.13288 11.09620 31387 ft 376 kts 204°
2026-05-04 18:51 62.10762 11.08206 31025 ft 373 kts 205°
2026-05-04 18:51 62.08259 11.06808 30569 ft 371 kts 205°
2026-05-04 18:52 62.05768 11.05422 30265 ft 367 kts 206°
2026-05-04 18:52 62.03303 11.04052 29907 ft 364 kts 206°
2026-05-04 18:52 62.00859 11.02697 29507 ft 361 kts 207°
2026-05-04 18:52 61.98470 11.01376 29133 ft 356 kts 207°
2026-05-04 18:53 61.96084 11.00059 28759 ft 352 kts 207°
2026-05-04 18:53 61.93722 10.98756 28376 ft 348 kts 207°
2026-05-04 18:53 61.91393 10.97473 28031 ft 343 kts 207°
2026-05-04 18:53 61.89094 10.96208 27645 ft 339 kts 207°
2026-05-04 18:54 61.86816 10.94956 27320 ft 335 kts 207°
2026-05-04 18:54 61.84592 10.93735 26942 ft 332 kts 207°
2026-05-04 18:54 61.82361 10.92510 26581 ft 329 kts 207°
2026-05-04 18:54 61.80149 10.91299 26234 ft 326 kts 207°
2026-05-04 18:55 61.77956 10.90105 25836 ft 323 kts 208°
2026-05-04 18:55 61.73643 10.87753 25198 ft 316 kts 209°
2026-05-04 18:55 61.71526 10.86600 24877 ft 313 kts 209°
2026-05-04 18:56 61.69423 10.85455 24534 ft 311 kts 209°
2026-05-04 18:56 61.67329 10.84317 24207 ft 308 kts 209°
2026-05-04 18:56 61.65285 10.83209 23886 ft 305 kts 209°
2026-05-04 18:56 61.63237 10.82102 23576 ft 303 kts 209°
2026-05-04 18:57 61.61196 10.80997 23219 ft 301 kts 210°
2026-05-04 18:57 61.59187 10.79910 22845 ft 299 kts 209°
2026-05-04 18:57 61.57186 10.78834 22518 ft 295 kts 209°
2026-05-04 18:57 61.55238 10.77788 22192 ft 291 kts 209°
2026-05-04 18:58 61.53290 10.76744 21901 ft 288 kts 208°
2026-05-04 18:58 61.51351 10.75699 21554 ft 286 kts 208°
2026-05-04 18:58 61.49438 10.74671 21173 ft 283 kts 208°
2026-05-04 18:58 61.47541 10.73655 20947 ft 279 kts 209°
2026-05-04 18:59 61.45649 10.72636 20651 ft 284 kts 208°
2026-05-04 18:59 61.43699 10.71573 20359 ft 295 kts 208°
2026-05-04 18:59 61.41679 10.70482 20025 ft 299 kts 207°
2026-05-04 18:59 61.39662 10.69414 19690 ft 297 kts 207°
2026-05-04 19:00 61.37697 10.68379 19384 ft 294 kts 207°
2026-05-04 19:00 61.35723 10.67337 19064 ft 291 kts 207°
2026-05-04 19:00 61.33768 10.66301 18753 ft 289 kts 206°
2026-05-04 19:00 61.31765 10.65524 18377 ft 303 kts 194°
2026-05-04 19:01 61.29609 10.65863 17957 ft 318 kts 182°
2026-05-04 19:01 61.27424 10.67004 17558 ft 325 kts 175°
2026-05-04 19:01 61.25262 10.68363 17185 ft 324 kts 174°
2026-05-04 19:01 61.23120 10.69754 16815 ft 322 kts 173°
2026-05-04 19:02 61.20989 10.71137 16480 ft 320 kts 173°
2026-05-04 19:02 61.18866 10.72502 16141 ft 318 kts 172°
2026-05-04 19:02 61.16785 10.73826 15812 ft 316 kts 172°
2026-05-04 19:02 61.14687 10.75150 15478 ft 314 kts 172°
2026-05-04 19:03 61.12601 10.76458 15155 ft 312 kts 171°
2026-05-04 19:03 61.10531 10.77751 14830 ft 310 kts 171°
2026-05-04 19:03 61.08470 10.79033 14493 ft 308 kts 171°
2026-05-04 19:03 61.06420 10.80305 14167 ft 307 kts 170°
2026-05-04 19:04 61.04375 10.81572 13859 ft 305 kts 169°
2026-05-04 19:04 61.02346 10.82826 13547 ft 303 kts 169°
2026-05-04 19:04 61.00329 10.84072 13201 ft 302 kts 168°
2026-05-04 19:04 60.98322 10.85310 12842 ft 301 kts 168°
2026-05-04 19:05 60.96343 10.86529 12498 ft 300 kts 168°
2026-05-04 19:05 60.94350 10.87754 12144 ft 298 kts 168°
2026-05-04 19:05 60.92360 10.88976 11796 ft 297 kts 168°
2026-05-04 19:05 60.90379 10.90192 11438 ft 296 kts 168°
2026-05-04 19:06 60.88410 10.91398 11073 ft 295 kts 168°
2026-05-04 19:06 60.86440 10.92602 10739 ft 294 kts 168°
2026-05-04 19:06 60.84485 10.93797 10438 ft 292 kts 168°
2026-05-04 19:06 60.82582 10.94959 10270 ft 285 kts 167°
2026-05-04 19:07 60.80696 10.96112 10057 ft 280 kts 167°
2026-05-04 19:07 60.78829 10.97248 9779 ft 280 kts 167°
2026-05-04 19:07 60.76966 10.98379 9473 ft 279 kts 167°
2026-05-04 19:07 60.75110 10.99506 9167 ft 276 kts 168°
2026-05-04 19:08 60.73275 11.00620 8879 ft 273 kts 168°
2026-05-04 19:08 60.71498 11.01696 8520 ft 273 kts 168°
2026-05-04 19:08 60.69764 11.02744 8217 ft 272 kts 168°
2026-05-04 19:08 60.67948 11.03840 7903 ft 271 kts 168°
2026-05-04 19:09 60.66141 11.04931 7597 ft 270 kts 168°
2026-05-04 19:09 60.64316 11.06029 7194 ft 274 kts 168°
2026-05-04 19:09 60.62552 11.07091 6889 ft 271 kts 168°
2026-05-04 19:09 60.60767 11.08167 6617 ft 265 kts 168°
2026-05-04 19:10 60.59004 11.09228 6341 ft 264 kts 168°
2026-05-04 19:10 60.57325 11.10234 6061 ft 263 kts 168°
2026-05-04 19:10 60.55636 11.11247 5810 ft 260 kts 169°
2026-05-04 19:10 60.53996 11.12232 5690 ft 252 kts 169°
2026-05-04 19:11 60.52382 11.13201 5592 ft 243 kts 169°
2026-05-04 19:11 60.50807 11.14145 5499 ft 230 kts 169°
2026-05-04 19:11 60.49310 11.15039 5373 ft 217 kts 169°
2026-05-04 19:11 60.47895 11.15883 5270 ft 209 kts 170°
2026-05-04 19:12 60.46523 11.16696 5141 ft 209 kts 170°
2026-05-04 19:12 60.43720 11.18355 4978 ft 210 kts 169°
2026-05-04 19:12 60.42330 11.19188 4942 ft 205 kts 169°
2026-05-04 19:13 60.40980 11.19955 4912 ft 204 kts 175°
2026-05-04 19:13 60.39603 11.19600 4545 ft 195 kts 211°
2026-05-04 19:13 60.38339 11.18609 4217 ft 201 kts 196°
2026-05-04 19:13 60.36983 11.18109 3923 ft 193 kts 201°
2026-05-04 19:14 60.35714 11.17359 3679 ft 188 kts 202°
2026-05-04 19:14 60.34454 11.16597 3435 ft 190 kts 202°
2026-05-04 19:14 60.33164 11.15841 3167 ft 194 kts 201°
2026-05-04 19:14 60.31889 11.15107 2913 ft 191 kts 201°
2026-05-04 19:15 60.30613 11.14371 2633 ft 189 kts 201°
2026-05-04 19:15 60.29362 11.13650 2393 ft 185 kts 202°
2026-05-04 19:15 60.28134 11.12941 2121 ft 179 kts 202°
2026-05-04 19:15 60.26972 11.12271 1881 ft 168 kts 203°
2026-05-04 19:16 60.25884 11.11642 1628 ft 157 kts 202°
2026-05-04 19:16 60.24855 11.11045 1438 ft 153 kts 202°
2026-05-04 19:16 60.23855 11.10469 1185 ft 147 kts 202°
2026-05-04 19:16 60.22851 11.09883 984 ft 153 kts 200°
2026-05-04 19:17 60.21792 11.09314 777 ft 162 kts 201°
2026-05-04 19:17 60.20749 11.08662 679 ft 145 kts 197°
2026-05-04 19:17 60.19964 11.08205 674 ft 73 kts 196°
2026-05-04 19:17 60.19734 11.08115 673 ft 26 kts 183°
2026-05-04 19:18 60.19623 11.08145 673 ft 7 kts 160°
2026-05-04 19:18 60.19587 11.08201 672 ft 0 kts 126°
2026-05-04 19:18 60.19581 11.08225 673 ft 4 kts 112°
2026-05-04 19:19 60.19572 11.08282 673 ft 4 kts 107°
2026-05-04 19:19 60.19564 11.08338 673 ft 4 kts 107°
2026-05-04 19:19 60.19555 11.08401 676 ft 7 kts 105°
2026-05-04 19:19 60.19536 11.08532 674 ft 12 kts 106°
2026-05-04 19:20 60.19511 11.08712 677 ft 14 kts 106°
2026-05-04 19:20 60.19484 11.08890 683 ft 13 kts 106°
2026-05-04 19:20 60.19460 11.09063 681 ft 12 kts 105°
2026-05-04 19:20 60.19444 11.09176 681 ft 5 kts 107°
2026-05-04 19:21 60.19439 11.09217 684 ft 2 kts 93°
2026-05-04 19:21 60.19449 11.09243 684 ft 3 kts 38°
2026-05-04 19:21 60.19473 11.09263 684 ft 2 kts 19°
2026-05-04 19:21 60.19483 11.09269 684 ft 1 kts 15°
2026-05-04 19:22 60.19486 11.09270 684 ft 0 kts 15°